Wetbulb
58.84 58.53 58.37 58.29 57.96 57.45 56.95 57.47 58.38 58.47 58.88 59.00 59.76 60.60 60.30 59.97 59.01 55.59 47.45 54.48 57.68 66.28 67.95 56.85 61.58 60.58 60.95 60.04 63.71 64.68 54.51 53.31 54.71 54.96 57.26 61.46 59.58 63.78 66.74 64.42 65.22 66.21 65.30 68.11 70.31
58.50 58.48 58.21 57.92 58.07 57.36 56.92 57.29 58.06 58.52 58.76 58.89 59.47 60.12 59.93 59.66 53.62 50.98 59.92 65.39 67.67 69.97 56.29 54.70 54.36 55.95 55.82 57.60 61.59 59.21 52.63 54.15 57.64 59.11 58.63 60.01 61.17 62.34 62.27 61.17 60.55 62.53 66.22 69.91 70.28
58.21 58.13 57.86 57.75 57.65 57.56 57.87 57.25 57.75 58.20 58.45 58.68 59.09 59.68 59.55 58.44 51.65 51.03 66.48 66.06 67.76 68.90 56.25 56.57 56.72 56.66 54.35 61.08 60.38 60.09 54.08 58.90 59.84 61.22 62.01 59.12 60.48 62.37 59.12 57.65 60.02 60.03 62.08 67.90 68.33
57.85 57.78 57.69 57.48 57.26 56.68 57.62 57.83 57.54 58.18 58.25 58.13 58.35 59.48 59.51 54.80 44.07 55.93 70.45 67.79 69.10 61.46 55.51 53.95 53.60 51.36 50.61 56.60 61.61 57.63 60.35 59.94 61.37 62.55 61.96 59.85 62.31 61.47 60.56 61.15 64.13 63.44 63.61 67.48 67.10
57.76 57.56 57.38 57.28 56.60 56.57 57.23 57.52 57.52 57.02 57.29 57.70 58.10 59.35 54.75 49.04 48.74 56.45 72.19 70.20 61.04 54.48 53.25 52.64 51.40 50.61 48.27 57.99 59.18 58.42 59.43 61.27 61.55 61.58 61.66 62.04 60.17 60.57 60.92 63.68 65.24 64.33 64.80 63.93 66.57
57.25 57.23 57.23 56.95 56.61 56.21 57.10 57.23 57.21 57.02 56.95 57.62 58.23 59.33 52.54 44.14 56.12 62.16 60.93 55.78 54.89 53.52 53.00 53.26 53.55 54.29 52.47 55.83 56.85 59.63 60.30 60.02 60.51 60.53 61.55 59.71 59.29 60.42 61.77 64.63 64.00 63.06 62.66 63.67 65.98
56.81 56.74 56.78 56.93 56.88 56.43 56.72 56.65 56.45 56.87 57.26 57.82 58.45 59.38 52.84 48.81 57.53 57.90 57.19 53.34 54.33 55.97 54.61 55.75 55.84 53.90 53.82 54.14 57.36 59.58 56.20 58.17 58.92 60.10 60.09 60.13 56.46 56.47 60.99 61.69 63.41 63.20 63.71 64.47 65.70
56.54 56.36 56.52 56.56 56.62 56.74 56.58 56.33 56.25 56.84 57.55 58.23 58.60 56.11 47.56 56.28 57.33 56.52 54.98 55.36 56.08 55.92 56.81 58.29 57.35 55.19 53.41 56.83 56.28 53.73 54.18 49.77 56.03 57.96 59.32 56.93 50.30 57.60 61.47 59.30 61.70 63.84 63.43 64.42 66.92
56.28 55.89 56.15 56.36 56.34 56.44 56.01 55.68 56.33 58.35 58.84 58.89 52.36 52.46 48.41 60.52 57.17 58.30 57.24 56.46 57.41 57.66 57.99 61.26 56.87 53.28 55.72 51.72 48.85 49.67 44.56 48.74 52.87 58.17 57.76 54.55 51.09 57.52 60.27 59.94 58.01 63.39 64.74 64.60 64.82
55.79 55.59 55.36 55.65 55.91 55.84 54.96 55.40 57.70 56.68 56.95 58.91 58.09 49.81 52.51 54.79 57.23 59.45 58.74 58.56 59.24 58.20 57.58 56.28 53.00 50.91 49.93 48.23 42.78 44.43 45.18 47.90 48.62 54.40 56.09 52.90 52.36 55.82 58.48 59.67 60.93 63.64 64.32 61.93 60.73
55.61 55.18 55.04 55.16 55.48 55.07 52.24 52.24 49.34 48.93 51.56 48.48 51.67 53.56 56.16 57.64 59.78 57.86 60.20 59.86 59.40 56.68 51.68 53.91 49.58 46.60 50.18 51.63 53.64 50.59 50.23 48.75 52.48 54.98 52.22 51.67 52.36 54.83 57.65 59.06 58.93 60.88 62.92 57.79 57.37
55.22 55.08 55.12 55.08 55.05 54.39 49.85 51.58 53.45 52.89 48.00 54.41 55.41 56.01 58.52 57.39 55.08 57.98 60.56 56.23 55.28 50.87 52.16 50.16 47.16 52.13 55.76 54.09 53.15 51.53 48.71 49.13 52.38 54.98 52.00 52.64 52.50 55.13 56.37 56.36 57.84 59.04 59.48 60.49 58.86
54.08 54.30 54.59 54.77 53.94 50.19 49.99 53.19 54.15 53.94 47.03 52.48 55.76 54.27 53.84 54.83 53.83 56.16 58.31 56.40 53.85 51.42 50.80 48.04 51.49 55.09 54.72 52.36 51.73 51.13 48.21 49.69 49.49 51.96 52.03 50.18 47.51 51.96 56.25 57.42 58.03 59.13 58.17 59.78 59.26
53.85 53.83 54.18 53.32 51.86 52.66 53.36 56.83 55.17 53.60 44.04 50.23 53.05 55.33 55.36 54.83 53.39 58.00 59.32 56.90 52.64 51.17 50.70 49.91 54.37 53.93 53.22 52.03 53.84 46.66 53.88 52.76 50.82 45.52 42.12 47.65 39.03 47.37 53.04 54.94 56.16 58.50 58.13 59.03 60.40
53.51 53.98 53.85 52.83 47.12 51.38 56.07 57.37 57.35 53.62 37.55 54.44 52.25 56.04 54.45 52.31 53.67 54.43 58.34 55.66 52.08 51.92 51.42 50.39 51.65 51.53 51.31 52.91 54.44 50.78 54.67 49.11 48.63 45.59 42.83 46.02 42.40 45.13 52.08 50.57 52.13 55.51 57.52 56.58 60.33
53.06 53.49 52.91 51.39 48.35 52.92 56.60 56.76 53.71 44.03 38.18 51.03 52.86 50.22 49.71 50.91 52.91 54.19 54.95 57.01 56.18 52.23 51.74 50.98 54.24 52.54 53.19 55.04 53.64 54.43 50.75 48.07 45.16 42.68 38.32 42.85 43.28 42.69 47.77 50.58 53.00 57.35 57.25 57.27 63.68
52.73 52.66 51.38 52.80 47.91 54.48 55.27 52.13 42.69 38.04 50.86 49.14 47.74 49.10 48.46 48.83 50.57 51.55 51.31 50.84 48.92 44.38 44.48 49.85 51.40 54.15 55.64 51.31 52.94 50.79 43.86 38.12 37.28 37.41 37.72 43.89 44.48 44.57 52.14 54.40 55.07 56.86 59.28 60.08 62.01
51.59 51.03 50.74 52.07 50.54 55.06 53.11 46.73 37.05 46.69 48.07 54.36 53.24 48.31 46.91 49.17 50.16 51.17 49.70 47.66 50.35 48.16 44.38 44.03 44.23 52.38 55.59 51.48 48.36 48.03 44.52 39.00 33.98 34.96 38.59 46.06 42.70 47.00 54.22 55.27 57.39 57.89 58.29 59.12 60.44
50.76 48.68 51.16 54.34 54.29 55.53 49.14 39.52 40.95 47.04 52.24 50.53 50.27 46.86 45.60 48.94 49.82 49.21 47.92 48.99 51.99 51.52 45.48 45.12 46.61 54.78 55.59 55.43 52.71 47.61 43.89 46.58 41.80 41.17 38.82 42.68 46.71 52.07 54.96 54.92 56.27 55.39 57.60 57.74 59.05
47.02 47.73 52.07 58.74 58.31 53.20 45.89 41.78 45.90 53.02 53.43 52.29 46.43 51.66 47.33 49.28 49.49 47.93 50.58 53.99 53.99 55.43 52.74 50.02 44.80 53.41 55.93 56.02 53.49 49.56 50.26 42.56 41.53 35.54 33.66 40.35 42.33 43.68 48.75 51.20 53.25 53.05 54.31 55.03 57.02
46.52 49.40 56.91 60.06 56.09 49.56 41.97 43.45 49.17 53.62 53.68 51.07 48.54 48.95 50.93 51.47 50.42 48.56 50.67 53.72 56.22 56.17 53.13 50.48 47.92 49.01 52.17 48.24 46.96 46.79 43.98 45.95 43.89 42.40 37.92 36.31 40.14 49.85 49.65 51.55 51.61 52.86 54.76 54.29 55.66
45.33 45.72 58.73 55.81 47.07 44.66 42.49 47.85 50.32 51.31 53.34 51.91 51.08 51.00 50.28 53.48 51.12 50.47 51.39 54.53 59.86 57.59 51.96 51.69 47.03 42.74 46.20 50.53 51.13 48.42 45.32 46.50 41.04 39.98 42.45 40.67 40.69 53.88 51.86 52.38 54.10 54.89 54.93 53.59 56.39
42.72 46.01 55.56 54.53 43.72 43.78 47.18 51.15 52.82 52.28 51.48 50.49 50.49 52.40 51.50 49.78 48.10 51.77 53.86 58.81 59.26 57.71 53.57 50.45 43.23 37.89 40.29 43.90 49.07 47.10 48.92 47.76 45.87 43.52 41.87 39.29 40.63 52.73 53.95 52.42 54.56 51.89 55.23 55.22 55.62
45.45 46.89 53.88 55.27 51.43 48.62 48.16 50.40 53.18 58.61 55.53 56.41 53.02 52.39 49.71 46.79 49.18 50.17 54.05 57.41 58.24 57.48 58.54 53.33 44.28 41.58 37.58 40.95 46.66 46.59 48.84 48.71 45.82 40.37 41.46 42.14 43.97 48.04 50.75 51.95 53.77 55.35 53.79 54.83 56.58
48.18 45.45 47.97 44.16 46.68 47.12 48.13 51.28 53.09 51.32 55.96 56.53 53.69 54.84 52.80 45.24 47.98 50.31 53.10 52.89 55.04 56.32 55.33 51.45 45.00 46.30 47.80 50.81 51.77 50.83 50.67 49.88 47.08 46.07 43.37 44.33 45.24 49.02 50.80 51.93 52.92 52.67 54.65 55.66 53.97
46.30 45.58 47.65 44.83 47.28 47.75 48.27 50.99 52.72 53.72 53.11 53.43 52.78 55.47 53.59 50.06 51.03 50.63 52.45 50.67 49.64 52.65 52.12 52.52 46.41 49.11 48.73 52.98 52.90 49.92 51.16 51.08 50.25 48.86 48.13 47.10 45.18 52.09 53.14 53.34 52.99 52.70 52.97 53.06 53.73
46.52 48.23 47.00 43.83 45.28 45.30 45.59 48.61 51.56 54.33 55.83 56.48 55.33 54.19 52.41 52.10 53.95 54.33 55.47 53.12 52.23 50.55 50.00 51.28 48.61 46.38 43.57 50.12 48.96 43.66 48.65 50.84 48.98 50.17 49.15 44.70 47.02 49.78 50.40 51.60 52.13 52.04 52.97 52.51 53.93
MSLP
1018.38 1017.95 1017.60 1017.25 1016.92 1016.68 1016.47 1016.18 1015.99 1015.87 1015.74 1015.47 1015.16 1014.94 1014.83 1014.48 1013.77 1013.81 1013.01 1010.86 1010.58 1010.36 1010.69 1010.56 1011.02 1011.21 1011.11 1011.68 1012.11 1012.67 1013.95 1014.44 1014.24 1013.45 1011.90 1010.50 1011.02 1010.04 1010.28 1009.91 1010.13 1009.76 1009.61 1009.20 1009.83
1018.39 1017.99 1017.55 1017.14 1016.82 1016.52 1016.25 1015.97 1015.72 1015.58 1015.54 1015.41 1015.15 1014.84 1014.71 1014.47 1013.98 1012.56 1009.98 1009.92 1010.02 1010.19 1010.57 1010.63 1010.74 1011.09 1011.48 1011.56 1012.17 1012.75 1013.06 1012.61 1012.20 1012.01 1011.58 1010.03 1009.95 1010.58 1011.06 1010.23 1010.05 1009.28 1008.65 1009.45 1010.28
1018.43 1017.96 1017.52 1017.10 1016.66 1016.29 1015.98 1015.80 1015.64 1015.48 1015.32 1015.18 1014.96 1014.74 1014.52 1014.38 1013.46 1009.84 1008.42 1009.05 1009.35 1009.93 1010.26 1010.31 1010.21 1010.38 1011.00 1010.63 1011.58 1011.49 1011.29 1011.59 1011.65 1011.24 1010.94 1010.33 1009.74 1010.58 1010.57 1010.27 1009.85 1008.73 1008.65 1009.68 1010.36
1018.54 1017.96 1017.42 1016.98 1016.60 1016.31 1016.00 1015.67 1015.46 1015.28 1015.11 1014.98 1014.86 1014.65 1014.28 1014.01 1011.90 1008.21 1007.84 1007.99 1008.61 1009.50 1010.14 1010.10 1010.12 1010.22 1010.78 1010.98 1010.51 1010.23 1009.57 1010.42 1011.12 1011.39 1011.23 1010.76 1010.28 1010.04 1009.84 1008.57 1007.89 1007.99 1008.26 1009.28 1009.85
1018.24 1017.77 1017.33 1016.86 1016.41 1015.99 1015.64 1015.44 1015.31 1015.24 1015.13 1014.91 1014.65 1014.31 1013.90 1013.13 1010.41 1007.63 1007.84 1008.31 1008.85 1009.43 1009.73 1009.94 1009.82 1009.99 1010.38 1009.57 1009.73 1009.66 1008.83 1009.93 1010.17 1010.42 1010.14 1009.97 1009.67 1009.01 1008.46 1007.42 1007.35 1007.66 1008.52 1009.07 1009.62
1018.33 1017.85 1017.38 1016.88 1016.37 1015.92 1015.49 1015.23 1015.12 1014.98 1014.83 1014.67 1014.55 1014.39 1013.81 1011.78 1007.83 1007.67 1008.04 1008.54 1008.58 1008.95 1009.28 1009.47 1009.11 1009.08 1009.33 1009.21 1009.44 1008.51 1008.82 1009.21 1009.04 1008.92 1008.81 1009.13 1008.36 1008.40 1007.34 1007.20 1007.28 1007.75 1008.37 1008.69 1008.96
1018.34 1017.77 1017.20 1016.64 1016.15 1015.67 1015.25 1014.92 1014.77 1014.70 1014.64 1014.55 1014.44 1014.10 1013.29 1009.62 1007.72 1007.82 1007.76 1008.25 1008.12 1008.36 1008.77 1008.36 1008.42 1008.79 1008.34 1008.22 1008.20 1008.32 1009.04 1009.25 1008.71 1008.59 1008.15 1007.84 1007.40 1007.37 1006.91 1007.49 1007.55 1007.72 1007.93 1008.67 1008.98
1018.21 1017.64 1017.07 1016.52 1015.99 1015.51 1015.07 1014.73 1014.47 1014.37 1014.39 1014.45 1014.47 1014.08 1011.88 1008.11 1007.75 1007.97 1008.13 1008.05 1007.92 1007.93 1008.06 1007.32 1007.59 1007.98 1008.29 1008.34 1008.50 1008.66 1008.97 1009.41 1008.49 1008.05 1007.86 1007.73 1007.33 1007.16 1006.68 1007.47 1008.02 1008.31 1008.58 1009.74 1010.01
1018.10 1017.47 1016.84 1016.26 1015.70 1015.16 1014.73 1014.38 1014.17 1014.15 1014.22 1014.27 1014.35 1013.58 1010.61 1007.49 1007.77 1006.83 1007.38 1007.67 1007.40 1007.62 1007.54 1007.28 1007.46 1008.26 1008.52 1009.23 1009.54 1009.94 1009.97 1009.53 1008.26 1007.50 1007.44 1007.60 1007.45 1006.78 1006.54 1007.57 1008.23 1008.64 1009.14 1010.33 1011.26
1017.94 1017.26 1016.59 1016.00 1015.48 1014.83 1014.21 1013.95 1013.89 1014.06 1014.18 1014.10 1013.36 1013.00 1009.43 1007.26 1006.38 1006.35 1006.55 1006.99 1007.29 1007.37 1007.80 1007.83 1008.40 1009.08 1009.63 1009.99 1010.33 1010.43 1010.24 1009.59 1009.06 1008.22 1008.07 1007.80 1007.08 1006.62 1007.49 1008.16 1008.84 1009.20 1009.86 1010.87 1011.88
1017.90 1017.03 1016.38 1015.77 1015.31 1014.87 1014.16 1013.63 1014.06 1013.74 1013.08 1011.54 1010.56 1009.74 1008.13 1006.68 1006.00 1005.95 1006.06 1006.79 1007.22 1007.57 1008.19 1008.20 1009.28 1009.77 1009.47 1009.57 1009.30 1009.60 1009.79 1009.62 1008.34 1007.92 1008.39 1007.82 1007.44 1007.08 1007.62 1008.21 1008.94 1009.31 1010.16 1010.72 1011.29
1017.83 1016.90 1016.07 1015.40 1014.85 1014.58 1014.66 1013.55 1011.30 1010.65 1010.58 1009.53 1008.94 1008.38 1007.08 1006.92 1006.73 1005.77 1005.63 1006.65 1007.08 1007.83 1008.27 1008.97 1009.07 1008.30 1008.45 1008.70 1008.86 1008.98 1009.38 1008.91 1008.41 1007.16 1007.99 1007.27 1007.74 1008.14 1008.57 1009.09 1009.50 1010.05 1011.28 1012.02 1012.60
1017.74 1016.87 1015.92 1014.82 1014.35 1014.37 1013.71 1011.73 1009.75 1010.00 1010.07 1008.00 1007.33 1006.94 1006.24 1006.16 1005.96 1005.37 1005.46 1006.22 1007.10 1007.81 1008.28 1008.76 1007.93 1007.66 1008.22 1007.81 1008.45 1008.40 1008.75 1008.24 1008.25 1007.28 1006.98 1007.38 1008.40 1008.58 1009.55 1010.09 1010.98 1011.19 1011.56 1012.40 1012.58
1017.60 1016.83 1016.06 1014.78 1014.22 1013.71 1012.22 1009.28 1009.64 1009.82 1009.93 1007.49 1006.21 1005.16 1005.13 1005.24 1005.09 1004.64 1005.06 1005.97 1006.90 1007.37 1007.94 1008.16 1007.51 1007.54 1006.92 1007.25 1007.44 1007.95 1006.50 1007.37 1007.75 1007.53 1007.76 1007.98 1009.31 1009.86 1010.78 1011.49 1011.80 1012.53 1012.38 1012.34 1012.88
1017.32 1016.56 1016.01 1016.00 1014.93 1013.35 1010.03 1009.49 1009.54 1009.71 1009.38 1006.13 1005.28 1003.90 1004.32 1005.18 1004.66 1004.38 1004.54 1005.47 1006.19 1006.82 1007.56 1007.08 1007.02 1006.88 1006.52 1006.20 1006.16 1006.83 1006.64 1007.04 1007.07 1007.79 1008.47 1008.74 1009.89 1011.35 1011.80 1012.53 1013.31 1013.13 1012.09 1011.73 1012.89
1016.65 1016.15 1015.79 1015.20 1014.89 1011.22 1010.01 1009.62 1009.36 1010.22 1008.27 1005.52 1004.42 1004.32 1004.88 1004.92 1004.63 1004.61 1004.73 1005.10 1005.44 1006.37 1006.70 1006.68 1006.08 1005.98 1005.30 1005.31 1005.73 1006.21 1006.40 1007.16 1008.21 1008.99 1009.94 1010.17 1011.04 1012.15 1012.60 1013.36 1013.47 1013.30 1012.03 1011.46 1012.59
1015.81 1014.87 1015.42 1014.37 1011.96 1010.15 1009.93 1010.02 1010.76 1010.14 1007.13 1005.54 1004.84 1004.74 1004.86 1004.98 1004.95 1004.91 1005.08 1005.63 1006.12 1006.89 1007.12 1006.51 1006.09 1005.23 1004.84 1005.09 1005.34 1006.20 1007.74 1008.74 1009.96 1010.83 1011.03 1010.75 1011.53 1012.06 1012.86 1013.28 1013.56 1013.13 1012.66 1012.29 1012.40
1015.03 1013.53 1012.71 1011.90 1010.62 1010.66 1010.61 1011.32 1010.96 1008.69 1006.95 1005.20 1005.04 1004.69 1004.96 1004.70 1004.72 1004.70 1005.19 1005.67 1005.89 1006.41 1007.17 1007.27 1006.61 1005.63 1005.25 1005.76 1006.41 1007.02 1008.29 1009.56 1010.66 1011.66 1011.60 1011.10 1011.93 1012.05 1012.65 1013.14 1013.52 1013.61 1013.26 1012.72 1012.72
1014.27 1012.87 1012.18 1009.41 1010.04 1010.81 1011.34 1011.66 1010.24 1008.39 1006.74 1005.98 1005.04 1004.81 1004.96 1004.86 1004.73 1004.83 1005.42 1005.77 1006.01 1006.20 1007.07 1007.27 1006.77 1005.87 1005.50 1005.88 1006.53 1007.27 1008.34 1008.95 1010.36 1011.58 1012.06 1012.01 1012.56 1012.56 1012.96 1013.27 1013.80 1014.12 1014.06 1013.76 1013.01
1015.19 1013.63 1010.89 1008.31 1009.22 1010.31 1011.52 1011.34 1009.67 1007.87 1006.81 1006.21 1005.91 1005.48 1005.40 1005.19 1005.07 1005.11 1005.58 1005.74 1005.94 1006.18 1006.29 1007.06 1007.16 1006.45 1005.91 1006.08 1006.67 1007.18 1007.97 1009.12 1010.78 1012.18 1012.94 1012.62 1012.66 1012.74 1013.18 1013.40 1013.64 1013.88 1014.24 1014.21 1013.73
1015.30 1013.32 1008.76 1008.16 1008.87 1010.89 1011.77 1010.83 1009.06 1007.65 1007.11 1006.45 1005.95 1005.89 1005.38 1004.92 1005.19 1005.40 1005.45 1005.66 1005.51 1005.84 1006.65 1007.13 1007.60 1007.58 1006.54 1007.23 1007.31 1007.24 1008.04 1009.46 1010.85 1012.02 1012.94 1013.34 1013.18 1012.57 1012.99 1013.54 1013.85 1014.10 1014.28 1014.28 1014.09
1016.47 1013.70 1009.06 1008.55 1010.16 1011.24 1011.49 1010.00 1008.59 1007.49 1006.81 1006.54 1005.94 1005.34 1004.99 1005.25 1005.74 1005.91 1005.84 1005.69 1005.71 1005.78 1006.77 1007.57 1008.19 1008.57 1008.27 1007.39 1007.37 1007.59 1008.12 1009.31 1011.06 1012.08 1012.65 1013.12 1012.78 1012.46 1013.00 1013.75 1013.99 1014.23 1014.29 1014.20 1014.23
1017.83 1014.66 1009.76 1009.48 1010.83 1011.56 1010.90 1009.94 1008.82 1007.53 1006.72 1006.19 1005.89 1005.44 1005.47 1005.98 1006.54 1006.19 1005.99 1006.13 1005.76 1006.06 1006.94 1007.72 1009.00 1009.58 1009.21 1008.64 1007.82 1007.83 1008.12 1008.81 1010.11 1011.24 1012.16 1013.18 1012.93 1012.82 1013.20 1014.04 1014.21 1014.36 1014.49 1014.67 1014.38
1018.06 1015.65 1012.54 1011.63 1011.92 1012.34 1012.05 1010.47 1009.10 1007.53 1006.98 1006.85 1006.94 1006.24 1006.75 1006.65 1006.77 1006.92 1006.71 1006.79 1006.56 1006.24 1007.06 1007.99 1009.52 1010.03 1010.01 1009.25 1008.81 1008.61 1008.12 1008.62 1009.68 1011.17 1011.70 1012.20 1012.75 1013.35 1013.77 1014.14 1014.53 1014.54 1014.58 1014.55 1014.54
1018.05 1017.09 1015.99 1014.76 1013.45 1013.31 1012.70 1011.44 1010.10 1009.07 1008.50 1008.50 1008.43 1009.26 1009.02 1008.94 1008.61 1008.41 1008.26 1007.65 1007.64 1007.11 1008.10 1008.54 1009.72 1010.03 1009.75 1009.32 1008.65 1008.38 1008.12 1008.18 1009.12 1009.79 1010.99 1011.59 1012.56 1013.24 1013.65 1013.86 1014.33 1014.77 1014.74 1014.65 1014.60
1019.13 1018.61 1017.37 1016.36 1015.00 1014.05 1013.16 1012.26 1011.16 1010.25 1010.06 1010.22 1010.23 1010.00 1010.18 1011.18 1011.74 1011.23 1010.00 1008.68 1008.23 1008.84 1008.82 1009.30 1009.85 1010.04 1009.78 1008.96 1008.63 1008.15 1007.65 1007.81 1008.22 1009.39 1010.43 1011.38 1012.48 1012.81 1013.24 1013.48 1013.96 1014.31 1014.55 1014.54 1014.64
1020.37 1019.51 1018.97 1017.25 1016.09 1014.98 1014.43 1013.28 1012.09 1011.42 1011.40 1011.36 1011.09 1010.48 1010.47 1010.95 1010.78 1010.76 1010.53 1009.57 1009.01 1008.86 1009.81 1010.23 1010.26 1010.45 1010.02 1009.16 1008.53 1008.13 1007.14 1007.28 1008.35 1009.01 1010.01 1011.35 1011.74 1012.63 1013.28 1013.29 1013.34 1013.87 1014.06 1014.03 1014.06
Wind_Speed
16 15 14 12 11 10 10 10 9 8 8 9 10 9 10 11 13 3 8 11 7 5 3 4 1 2 2 4 4 4 4 4 6 4 9 16 1 6 4 7 1 5 8 6 21
18 17 16 14 12 11 10 11 10 9 8 7 8 9 9 10 3 8 10 12 10 8 2 3 5 3 2 6 3 3 3 7 10 11 10 12 12 8 3 3 2 6 9 13 19
19 18 16 16 14 13 11 10 10 8 8 8 8 9 9 6 3 11 17 19 14 10 2 2 5 2 4 9 7 5 9 7 9 17 13 10 12 6 9 4 9 10 9 13 14
18 18 18 17 16 14 12 11 10 9 9 8 8 9 10 2 5 2 9 20 12 8 2 3 3 5 3 5 8 5 11 6 6 10 6 14 7 11 9 10 17 17 15 16 18
20 21 20 18 18 16 14 12 10 8 7 7 8 9 2 1 11 4 9 11 8 7 6 2 4 3 3 6 5 8 8 5 12 14 23 15 19 23 19 20 14 13 13 14 16
19 19 18 18 17 16 13 11 9 8 7 7 6 8 1 2 6 6 10 8 7 5 4 7 8 8 7 10 8 9 5 8 12 15 8 11 11 5 11 9 13 14 16 17 18
20 19 19 19 17 17 14 11 9 7 6 5 5 3 0 15 3 5 10 6 6 6 5 7 5 3 3 8 2 5 8 8 4 4 6 7 3 6 5 5 12 14 15 13 13
20 20 19 19 18 16 15 12 10 9 6 5 2 1 9 4 6 4 3 4 6 7 8 11 4 5 4 4 6 4 5 3 6 3 4 2 9 6 5 7 8 9 8 7 5
22 21 20 20 20 18 17 15 9 4 4 5 2 1 12 8 6 10 9 9 8 6 8 10 2 2 6 3 6 7 1 4 6 5 1 3 8 10 4 3 2 3 12 15 14
23 22 21 20 20 18 20 7 0 1 3 4 5 3 6 7 5 6 9 13 4 5 5 2 6 3 4 5 5 3 4 6 5 5 2 6 12 12 6 3 5 6 7 9 15
25 24 23 21 20 15 11 2 4 1 2 10 8 5 6 4 3 5 7 9 6 3 5 5 3 6 10 8 8 4 4 7 17 10 4 9 12 12 4 11 9 6 8 8 13
26 26 25 23 17 15 1 3 8 5 8 16 13 9 10 5 5 9 7 6 3 5 1 5 7 13 11 6 7 7 5 15 13 17 9 17 19 2 7 2 6 4 5 7 1
26 25 26 26 26 3 3 9 3 9 2 8 9 7 8 9 10 11 11 7 5 6 7 7 15 7 11 6 5 12 5 12 13 10 6 2 6 3 4 7 10 5 4 2 5
26 25 24 31 1 4 6 6 2 6 4 8 5 8 5 5 7 8 10 10 4 12 6 8 11 13 20 7 6 5 18 15 16 4 5 7 5 2 4 6 7 1 2 6 5
26 25 21 10 5 2 7 8 5 5 4 4 4 4 5 9 3 3 5 3 10 10 4 14 8 8 10 16 6 10 15 9 3 1 3 7 5 3 4 3 3 4 9 11 2
29 24 22 3 3 11 10 10 4 7 7 4 7 5 6 3 7 4 4 2 6 4 4 10 4 6 9 10 6 6 3 7 5 3 5 5 6 5 1 3 5 5 8 11 6
31 29 13 4 7 2 6 5 6 4 6 1 5 5 9 9 7 5 5 7 8 3 6 7 7 8 2 4 6 12 7 4 5 5 6 3 3 5 4 1 2 5 6 5 7
34 31 6 7 5 3 4 7 3 5 7 1 5 7 10 8 9 6 5 7 7 5 4 3 5 7 4 3 2 4 6 5 6 5 6 4 4 4 6 4 6 5 3 1 4
29 4 3 7 9 3 7 3 8 6 3 7 8 4 3 4 5 6 5 1 1 6 8 4 5 4 5 2 6 3 5 5 4 1 2 2 2 3 4 5 6 5 3 5 6
6 5 5 1 9 6 6 6 5 4 10 6 4 4 1 5 1 7 3 4 4 5 3 7 2 2 1 4 1 4 4 4 4 2 3 5 3 5 2 2 3 5 4 2 0
2 5 5 8 6 7 3 7 5 6 9 4 7 6 3 2 3 2 7 4 6 5 5 3 4 6 5 2 5 8 6 4 4 5 6 2 7 5 5 2 4 2 4 4 5
5 3 3 4 4 1 3 5 4 9 10 8 6 7 2 4 4 6 6 3 5 3 3 2 5 1 7 9 4 5 5 4 6 5 3 5 7 3 3 2 4 4 3 3 3
4 5 7 5 1 3 6 5 7 13 14 6 6 2 2 5 3 6 7 3 2 4 7 3 3 4 12 9 6 3 4 2 3 3 4 5 6 3 4 5 2 4 5 3 1
2 5 6 5 2 4 6 6 7 8 3 8 9 9 9 6 5 6 4 1 6 2 7 8 4 8 8 9 3 6 7 3 6 4 4 5 4 1 2 3 4 4 5 2 3
1 2 2 4 5 7 3 4 7 8 5 16 7 9 3 4 10 3 2 3 5 6 3 5 6 5 6 8 6 7 11 11 8 6 6 5 7 6 7 6 5 6 3 5 3
4 4 6 4 5 6 7 6 8 11 6 4 3 5 13 6 2 7 5 4 6 3 2 1 4 6 5 8 8 10 13 10 6 4 6 6 2 6 5 4 6 7 8 7 6
4 4 2 5 6 4 5 8 9 5 8 8 6 1 7 3 7 15 13 8 3 8 6 5 5 3 5 3 2 6 7 6 4 3 8 6 7 8 5 7 8 8 7 7 9
Wind_Direction
8 3 357 350 342 333 324 322 322 324 323 322 326 326 326 320 309 126 231 217 190 236 139 283 165 264 218 154 128 160 82 211 214 191 283 309 25 324 350 115 147 187 170 197 158
2 360 356 351 344 336 328 323 327 327 326 327 325 324 321 332 302 247 224 215 220 172 222 285 302 103 226 166 117 95 190 199 190 192 205 228 192 179 115 141 348 266 89 136 160
360 359 355 351 346 340 331 325 322 324 327 335 328 318 316 321 333 248 182 206 218 180 218 296 267 270 150 157 200 207 231 134 223 196 228 240 325 142 153 273 226 218 165 163 172
355 356 354 349 348 341 332 326 322 327 330 326 320 314 314 226 187 264 193 194 190 152 229 266 337 7 86 178 203 192 248 200 326 200 229 254 292 304 224 241 217 215 176 177 182
351 351 350 347 347 341 334 328 322 320 318 317 322 330 336 8 251 253 106 118 138 161 211 225 294 166 166 171 135 269 242 197 201 186 205 236 242 243 268 260 216 186 167 192 191
347 345 344 343 342 341 329 320 315 309 309 311 319 317 20 285 236 163 117 141 165 185 192 169 229 202 262 162 185 240 135 220 212 237 209 206 246 170 262 226 173 173 191 200 196
344 342 341 341 340 340 331 321 314 305 296 295 311 303 356 235 70 123 148 199 171 188 225 226 205 267 309 338 18 134 146 202 234 276 253 225 223 210 227 339 182 192 195 182 206
342 340 339 338 336 334 329 316 302 296 278 252 246 220 245 251 268 239 199 286 222 232 225 264 240 268 60 295 9 25 67 163 232 146 219 221 265 284 192 174 231 214 188 165 345
340 339 337 337 334 331 325 313 290 282 210 157 160 173 268 308 169 234 164 219 206 249 261 272 10 44 18 39 360 9 296 313 300 195 181 155 259 243 284 290 210 151 167 118 107
338 337 336 334 333 329 325 280 157 16 176 208 258 338 278 237 235 173 192 210 186 235 299 301 54 36 27 54 279 254 293 247 257 285 352 266 256 263 341 94 109 129 150 122 114
336 333 333 331 328 331 343 40 25 343 241 199 195 239 274 278 29 263 179 195 197 117 189 276 59 244 239 214 221 212 234 259 280 259 203 249 267 279 231 137 145 140 159 123 139
333 330 330 327 325 321 208 172 214 171 301 220 241 247 269 74 303 247 148 161 147 228 227 350 252 235 226 234 270 279 257 275 281 267 169 253 264 76 11 104 139 125 85 112 182
331 330 330 325 323 115 195 232 75 29 309 283 196 202 230 155 214 237 143 171 178 238 244 196 249 259 233 252 217 267 242 270 238 285 228 100 306 117 36 83 47 57 47 10 235
329 329 331 328 340 323 250 257 322 139 29 276 195 252 212 185 262 192 181 159 192 215 224 222 261 229 253 248 173 250 264 236 252 49 291 141 275 36 65 57 37 359 352 265 270
327 328 330 318 298 270 247 358 6 61 357 239 186 206 180 151 217 274 180 120 204 229 162 262 263 260 252 242 233 235 275 229 282 349 57 335 79 307 354 82 303 331 231 239 157
325 326 331 109 209 243 316 302 69 48 257 273 156 178 142 220 256 276 155 124 209 216 236 242 231 200 232 243 214 240 33 46 43 86 33 270 122 287 339 296 349 358 7 70 98
325 317 307 267 230 49 313 42 49 155 295 193 178 152 183 208 244 212 227 190 207 167 266 318 310 293 322 360 358 39 45 351 358 353 224 203 67 217 171 76 90 52 22 53 125
324 314 215 213 238 325 33 56 187 241 261 347 14 139 186 194 239 215 207 210 260 173 109 156 345 360 344 97 284 294 135 152 233 222 252 302 174 251 148 178 140 137 170 358 199
322 321 253 251 195 126 76 110 210 216 296 356 324 161 262 278 225 210 159 220 218 164 169 153 245 289 75 191 143 303 337 198 143 320 55 216 314 302 171 139 154 170 130 239 274
322 325 266 136 140 76 79 232 231 267 338 14 324 348 117 329 261 130 124 255 158 218 177 205 263 256 313 42 286 135 237 341 9 247 270 286 184 210 322 265 17 355 158 181 184
335 355 272 137 84 53 167 235 288 283 308 323 296 263 213 207 341 241 179 219 184 180 169 160 121 278 61 327 261 319 334 58 124 138 182 241 258 199 204 150 288 296 189 237 210
340 359 295 19 73 142 192 222 284 283 293 283 259 246 120 174 219 200 171 181 348 228 100 324 142 287 237 266 241 219 202 135 124 259 218 165 270 221 188 161 245 166 115 340 70
334 275 304 101 203 274 301 285 267 284 276 255 244 230 165 185 231 237 172 225 107 122 143 193 355 26 342 346 350 351 317 150 123 74 201 147 260 25 139 118 212 154 173 139 17
359 353 329 22 45 53 360 293 327 307 17 351 26 25 360 339 193 260 174 66 339 124 130 107 147 158 196 219 207 292 303 202 150 144 209 216 169 98 128 166 156 204 204 199 181
90 324 5 335 335 335 225 313 337 346 26 11 41 31 312 330 350 45 349 14 340 62 113 107 190 185 238 247 251 276 284 286 197 196 162 211 184 178 193 201 185 191 185 193 166
36 18 344 298 298 324 356 341 352 340 348 35 42 9 62 94 193 282 310 197 188 35 61 79 242 189 249 233 260 288 284 287 164 133 86 127 157 177 180 156 162 172 157 167 169
322 332 101 286 343 16 353 327 345 4 76 45 318 296 33 287 242 226 234 279 303 147 211 180 185 135 251 261 311 306 256 176 114 129 144 180 201 159 173 180 186 174 180 180 183